Terug naar catalogus

OT-FOREST-19 PATADASTRA

ActiefWetenschapSSO
NORAD 69001·PAYLOAD·🇬🇷 Greece

Gelanceerd May 3, 2026 vanaf Vandenberg Space Force Base

Loading…

Volgende Passages (komende 24 uur)

TLE

VersSource: Space-Track

Epoch: Sep 13, 2026, 16:05 UTC

1 69001U 26100X   26256.67063652  .00001150  00000-0  11626-3 0  9997
2 69001  97.7243 152.6119 0002828  79.2854 280.8684 14.92914943 19899

Volg OT-FOREST-19 PATADASTRA in realtime met AllMySat

Download on the App Store